QTR026 YPAD-YPPH

Flight info

Callsign QTR026
Flight time N/A
Altitude 40000
Route AD A585 AREPA H54 KAMBI Q32 NODEV Q10 MALUP Q158 PH
Aircraft A35K/H-SDE2E3GHIJ3J4J5LM1ORWXY/LB1D1

Departure

Time N/A
Airport Adelaide International Airport (YPAD)

Arrival

Time 2026-04-27 08:11
Airport Perth International Airport (YPPH)
Time Latitude Longitude Altitude Speed Heading
2026-04-27 05:08 -34.75797 138.17693 16175 ft 377 kts 317°
2026-04-27 05:08 -34.74074 138.15256 16736 ft 378 kts 305°
2026-04-27 05:08 -34.72588 138.12619 17345 ft 379 kts 303°
2026-04-27 05:09 -34.71124 138.09938 17903 ft 382 kts 303°
2026-04-27 05:09 -34.69645 138.07237 18429 ft 386 kts 302°
2026-04-27 05:09 -34.68143 138.04513 18920 ft 389 kts 303°
2026-04-27 05:09 -34.66631 138.01784 19426 ft 390 kts 303°
2026-04-27 05:10 -34.65108 137.99047 19892 ft 393 kts 303°
2026-04-27 05:10 -34.63565 137.96279 20346 ft 396 kts 302°
2026-04-27 05:10 -34.62014 137.93500 20805 ft 399 kts 302°
2026-04-27 05:10 -34.60454 137.90708 21295 ft 401 kts 302°
2026-04-27 05:11 -34.58906 137.87888 21751 ft 403 kts 300°
2026-04-27 05:11 -34.57614 137.84866 22203 ft 403 kts 290°
2026-04-27 05:11 -34.56768 137.81628 22661 ft 404 kts 283°
2026-04-27 05:11 -34.56128 137.78348 23129 ft 405 kts 280°
2026-04-27 05:12 -34.55572 137.75000 23605 ft 406 kts 278°
2026-04-27 05:12 -34.55055 137.71616 23989 ft 409 kts 278°
2026-04-27 05:12 -34.54546 137.68219 24407 ft 410 kts 278°
2026-04-27 05:12 -34.54025 137.64810 24791 ft 412 kts 278°
2026-04-27 05:13 -34.53484 137.61382 25183 ft 414 kts 278°
2026-04-27 05:13 -34.52929 137.57954 25614 ft 415 kts 279°
2026-04-27 05:13 -34.52363 137.54519 26056 ft 416 kts 279°
2026-04-27 05:13 -34.51789 137.51076 26475 ft 418 kts 279°
2026-04-27 05:14 -34.51208 137.47606 26901 ft 420 kts 279°
2026-04-27 05:14 -34.50625 137.44131 27355 ft 422 kts 279°
2026-04-27 05:14 -34.50039 137.40642 27828 ft 424 kts 279°
2026-04-27 05:14 -34.49450 137.37137 28310 ft 426 kts 279°
2026-04-27 05:15 -34.48855 137.33604 28802 ft 428 kts 279°
2026-04-27 05:15 -34.48259 137.30063 29305 ft 430 kts 279°
2026-04-27 05:15 -34.47658 137.26502 29785 ft 433 kts 279°
2026-04-27 05:15 -34.47050 137.22910 30287 ft 435 kts 279°
2026-04-27 05:16 -34.46440 137.19308 30730 ft 438 kts 279°
2026-04-27 05:16 -34.45823 137.15672 31184 ft 441 kts 279°
2026-04-27 05:16 -34.45203 137.12025 31636 ft 443 kts 279°
2026-04-27 05:16 -34.44577 137.08348 32091 ft 446 kts 279°
2026-04-27 05:17 -34.43947 137.04661 32533 ft 448 kts 279°
2026-04-27 05:17 -34.43313 137.00953 32966 ft 451 kts 279°
2026-04-27 05:17 -34.42673 136.97214 33404 ft 454 kts 279°
2026-04-27 05:17 -34.42029 136.93464 33836 ft 456 kts 279°
2026-04-27 05:18 -34.41380 136.89694 34245 ft 459 kts 279°
2026-04-27 05:18 -34.40727 136.85903 34594 ft 462 kts 279°
2026-04-27 05:18 -34.40067 136.82084 34978 ft 463 kts 279°
2026-04-27 05:18 -34.39630 136.79559 35306 ft 462 kts 279°
2026-04-27 05:19 -34.38749 136.74486 35999 ft 460 kts 279°
2026-04-27 05:19 -34.38099 136.70746 36471 ft 459 kts 279°
2026-04-27 05:19 -34.37654 136.68189 36832 ft 458 kts 279°
2026-04-27 05:19 -34.36784 136.63200 37509 ft 457 kts 279°
2026-04-27 05:20 -34.36128 136.59447 37999 ft 455 kts 279°
2026-04-27 05:20 -34.35472 136.55703 38473 ft 455 kts 279°
2026-04-27 05:20 -34.34816 136.51969 38921 ft 454 kts 279°
2026-04-27 05:20 -34.34159 136.48231 39296 ft 453 kts 279°
2026-04-27 05:21 -34.33716 136.45711 39543 ft 452 kts 279°
2026-04-27 05:21 -34.33070 136.42041 39915 ft 451 kts 279°
2026-04-27 05:21 -34.32416 136.38333 40187 ft 452 kts 279°
2026-04-27 05:22 -34.31101 136.30914 40247 ft 449 kts 279°
2026-04-27 05:22 -34.29788 136.23518 40253 ft 449 kts 279°
2026-04-27 05:23 -34.28471 136.16132 40242 ft 450 kts 279°
2026-04-27 05:23 -34.27145 136.08733 40247 ft 450 kts 279°
2026-04-27 05:24 -34.25817 136.01335 40245 ft 450 kts 279°
2026-04-27 05:24 -34.24482 135.93937 40245 ft 450 kts 278°
2026-04-27 05:25 -34.23144 135.86545 40247 ft 451 kts 278°
2026-04-27 05:25 -34.21801 135.79149 40244 ft 451 kts 278°
2026-04-27 05:26 -34.20445 135.71745 40239 ft 452 kts 278°
2026-04-27 05:26 -34.19091 135.64338 40241 ft 452 kts 278°
2026-04-27 05:27 -34.17731 135.56917 40229 ft 452 kts 278°
2026-04-27 05:27 -34.16360 135.49496 40230 ft 453 kts 278°
2026-04-27 05:28 -34.14989 135.42066 40234 ft 453 kts 278°
2026-04-27 05:28 -34.13685 135.34639 40226 ft 450 kts 274°
2026-04-27 05:29 -34.13114 135.27180 40235 ft 448 kts 269°
2026-04-27 05:29 -34.12736 135.19690 40233 ft 447 kts 269°
2026-04-27 05:30 -34.12382 135.12191 40233 ft 447 kts 269°
2026-04-27 05:30 -34.12011 135.04703 40238 ft 447 kts 269°
2026-04-27 05:31 -34.11623 134.97205 40236 ft 447 kts 269°
2026-04-27 05:31 -34.11228 134.89736 40241 ft 446 kts 269°
2026-04-27 05:32 -34.10829 134.82269 40237 ft 445 kts 269°
2026-04-27 05:32 -34.10427 134.74809 40238 ft 445 kts 269°
2026-04-27 05:33 -34.10021 134.67357 40241 ft 446 kts 269°
2026-04-27 05:33 -34.09611 134.59904 40237 ft 445 kts 269°
2026-04-27 05:34 -34.09198 134.52453 40241 ft 444 kts 270°
2026-04-27 05:34 -34.08777 134.45016 40241 ft 444 kts 270°
2026-04-27 05:35 -34.08355 134.37583 40237 ft 444 kts 270°
2026-04-27 05:35 -34.07927 134.30159 40244 ft 443 kts 270°
2026-04-27 05:36 -34.07498 134.22791 40241 ft 443 kts 270°
2026-04-27 05:36 -34.07060 134.15335 40241 ft 442 kts 270°
2026-04-27 05:37 -34.06623 134.07989 40241 ft 442 kts 270°
2026-04-27 05:37 -34.06180 134.00593 40234 ft 442 kts 270°
2026-04-27 05:38 -34.05732 133.93218 40237 ft 441 kts 270°
2026-04-27 05:38 -34.05281 133.85839 40240 ft 441 kts 270°
2026-04-27 05:39 -34.04826 133.78477 40240 ft 440 kts 270°
2026-04-27 05:39 -34.04367 133.71121 40241 ft 439 kts 270°
2026-04-27 05:40 -34.03905 133.63770 40235 ft 439 kts 270°
2026-04-27 05:40 -34.03438 133.56437 40235 ft 438 kts 270°
2026-04-27 05:41 -34.02968 133.49109 40237 ft 438 kts 270°
2026-04-27 05:41 -34.02493 133.41780 40232 ft 438 kts 270°
2026-04-27 05:42 -34.02019 133.34524 40238 ft 436 kts 270°
2026-04-27 05:42 -34.01538 133.27248 40234 ft 436 kts 270°
2026-04-27 05:43 -34.01054 133.19966 40234 ft 435 kts 270°
2026-04-27 05:43 -34.00566 133.12697 40233 ft 434 kts 270°
2026-04-27 05:44 -34.00074 133.05447 40233 ft 434 kts 271°
2026-04-27 05:44 -33.99579 132.98190 40227 ft 434 kts 271°
2026-04-27 05:45 -33.99079 132.90954 40227 ft 433 kts 271°
2026-04-27 05:45 -33.98576 132.83726 40231 ft 433 kts 271°
2026-04-27 05:46 -33.98069 132.76494 40225 ft 433 kts 271°
2026-04-27 05:46 -33.97561 132.69312 40225 ft 433 kts 271°
2026-04-27 05:47 -33.97046 132.62078 40234 ft 433 kts 271°
2026-04-27 05:47 -33.96530 132.54865 40224 ft 432 kts 271°
2026-04-27 05:48 -33.96006 132.47661 40224 ft 431 kts 271°
2026-04-27 05:48 -33.95478 132.40458 40221 ft 432 kts 271°
2026-04-27 05:49 -33.94968 132.33258 40220 ft 431 kts 271°
2026-04-27 05:49 -33.94439 132.26082 40222 ft 430 kts 272°
2026-04-27 05:50 -33.93886 132.18899 40225 ft 430 kts 272°
2026-04-27 05:50 -33.93337 132.11727 40228 ft 429 kts 272°
2026-04-27 05:51 -33.92791 132.04576 40225 ft 429 kts 272°
2026-04-27 05:51 -33.92243 131.97414 40227 ft 429 kts 272°
2026-04-27 05:52 -33.91696 131.90272 40226 ft 428 kts 272°
2026-04-27 05:52 -33.91142 131.83186 40228 ft 428 kts 272°
2026-04-27 05:53 -33.90582 131.76061 40234 ft 427 kts 273°
2026-04-27 05:53 -33.90020 131.68938 40225 ft 427 kts 273°
2026-04-27 05:54 -33.89453 131.61829 40224 ft 427 kts 273°
2026-04-27 05:54 -33.88883 131.54711 40224 ft 427 kts 273°
2026-04-27 05:55 -33.88310 131.47603 40225 ft 426 kts 273°
2026-04-27 05:55 -33.87726 131.40509 40220 ft 426 kts 273°
2026-04-27 05:56 -33.87138 131.33425 40226 ft 426 kts 274°
2026-04-27 05:56 -33.86549 131.26340 40222 ft 425 kts 274°
2026-04-27 05:57 -33.85951 131.19247 40219 ft 425 kts 274°
2026-04-27 05:57 -33.85357 131.12223 40223 ft 425 kts 274°
2026-04-27 05:58 -33.84755 131.05144 40220 ft 425 kts 274°
2026-04-27 05:58 -33.84149 130.98080 40220 ft 425 kts 274°
2026-04-27 05:59 -33.83538 130.91008 40218 ft 425 kts 274°
2026-04-27 05:59 -33.82925 130.83943 40215 ft 425 kts 274°
2026-04-27 06:00 -33.81995 130.73331 40216 ft 425 kts 274°
2026-04-27 06:00 -33.81369 130.66250 40216 ft 425 kts 274°
2026-04-27 06:01 -33.80741 130.59184 40211 ft 425 kts 274°
2026-04-27 06:01 -33.80107 130.52104 40211 ft 426 kts 274°
2026-04-27 06:02 -33.79469 130.45025 40208 ft 426 kts 274°
2026-04-27 06:02 -33.78828 130.37953 40211 ft 426 kts 275°
2026-04-27 06:03 -33.78181 130.30870 40211 ft 426 kts 275°
2026-04-27 06:03 -33.77532 130.23798 40211 ft 426 kts 275°
2026-04-27 06:04 -33.76878 130.16720 40211 ft 426 kts 275°
2026-04-27 06:04 -33.76220 130.09650 40208 ft 426 kts 275°
2026-04-27 06:05 -33.75558 130.02578 40209 ft 426 kts 275°
2026-04-27 06:05 -33.75004 129.96695 40208 ft 426 kts 275°
2026-04-27 06:06 -33.74335 129.89633 40208 ft 425 kts 275°
2026-04-27 06:06 -33.73663 129.82570 40206 ft 425 kts 275°
2026-04-27 06:07 -33.72987 129.75517 40203 ft 425 kts 275°
2026-04-27 06:07 -33.72199 129.67350 40203 ft 424 kts 275°
2026-04-27 06:08 -33.71631 129.61498 40192 ft 424 kts 275°
2026-04-27 06:08 -33.71152 129.56589 40205 ft 424 kts 275°
2026-04-27 06:10 -33.71065 129.55699 40203 ft 424 kts 275°
2026-04-27 06:10 -33.70941 129.54424 40202 ft 424 kts 275°
2026-04-27 06:12 -33.70305 129.47948 40197 ft 423 kts 275°
2026-04-27 06:12 -33.69612 129.40933 40197 ft 423 kts 275°
2026-04-27 06:13 -33.68916 129.33915 40199 ft 423 kts 276°
2026-04-27 06:13 -33.68217 129.26913 40197 ft 422 kts 276°
2026-04-27 06:14 -33.67515 129.19929 40195 ft 422 kts 276°
2026-04-27 06:14 -33.66808 129.12933 40195 ft 422 kts 276°
2026-04-27 06:15 -33.66099 129.05953 40194 ft 420 kts 276°
2026-04-27 06:15 -33.65389 128.99007 40195 ft 419 kts 276°
2026-04-27 06:16 -33.64680 128.92107 40191 ft 419 kts 276°
2026-04-27 06:16 -33.63964 128.85169 40189 ft 419 kts 276°
2026-04-27 06:17 -33.63240 128.78200 40191 ft 418 kts 276°
2026-04-27 06:17 -33.62521 128.71332 40189 ft 417 kts 276°
2026-04-27 06:18 -33.61794 128.64414 40196 ft 417 kts 276°
2026-04-27 06:18 -33.61067 128.57518 40190 ft 416 kts 276°
2026-04-27 06:19 -33.60334 128.50624 40190 ft 416 kts 276°
2026-04-27 06:19 -33.59598 128.43732 40188 ft 416 kts 276°
2026-04-27 06:20 -33.58859 128.36851 40183 ft 416 kts 276°
2026-04-27 06:20 -33.58116 128.29964 40182 ft 416 kts 276°
2026-04-27 06:21 -33.57369 128.23083 40184 ft 416 kts 276°
2026-04-27 06:21 -33.56620 128.16216 40185 ft 415 kts 277°
2026-04-27 06:22 -33.55866 128.09356 40181 ft 414 kts 277°
2026-04-27 06:22 -33.55114 128.02516 40181 ft 414 kts 277°
2026-04-27 06:23 -33.54358 127.95668 40178 ft 414 kts 277°
2026-04-27 06:23 -33.53616 127.88876 40174 ft 413 kts 277°
2026-04-27 06:24 -33.52860 127.82050 40179 ft 413 kts 277°
2026-04-27 06:24 -33.52096 127.75231 40179 ft 413 kts 277°
2026-04-27 06:25 -33.51332 127.68423 40177 ft 412 kts 277°
2026-04-27 06:25 -33.50566 127.61624 40176 ft 411 kts 277°
2026-04-27 06:26 -33.49797 127.54835 40175 ft 411 kts 277°
2026-04-27 06:26 -33.49025 127.48047 40173 ft 411 kts 277°
2026-04-27 06:27 -33.48255 127.41268 40169 ft 410 kts 278°
2026-04-27 06:27 -33.47478 127.34514 40171 ft 409 kts 278°
2026-04-27 06:28 -33.46696 127.27764 40170 ft 409 kts 278°
2026-04-27 06:28 -33.45912 127.21004 40176 ft 409 kts 278°
2026-04-27 06:29 -33.45126 127.14259 40171 ft 408 kts 278°
2026-04-27 06:29 -33.44342 127.07570 40171 ft 408 kts 278°
2026-04-27 06:30 -33.43549 127.00836 40168 ft 408 kts 278°
2026-04-27 06:30 -33.42757 126.94112 40168 ft 408 kts 278°
2026-04-27 06:31 -33.41956 126.87378 40168 ft 408 kts 278°
2026-04-27 06:31 -33.41151 126.80652 40164 ft 408 kts 278°
2026-04-27 06:32 -33.40343 126.73919 40168 ft 408 kts 278°
2026-04-27 06:32 -33.39538 126.67189 40166 ft 408 kts 278°
2026-04-27 06:33 -33.38728 126.60474 40165 ft 408 kts 278°
2026-04-27 06:33 -33.37910 126.53750 40161 ft 408 kts 279°
2026-04-27 06:34 -33.37088 126.47031 40165 ft 409 kts 279°
2026-04-27 06:34 -33.36258 126.40297 40156 ft 409 kts 279°
2026-04-27 06:35 -33.35424 126.33554 40161 ft 409 kts 279°
2026-04-27 06:35 -33.34590 126.26833 40161 ft 409 kts 279°
2026-04-27 06:36 -33.33767 126.20149 40153 ft 408 kts 279°
2026-04-27 06:36 -33.32940 126.13390 40152 ft 408 kts 279°
2026-04-27 06:37 -33.32109 126.06723 40141 ft 408 kts 279°
2026-04-27 06:37 -33.31253 126.00007 40148 ft 409 kts 279°
2026-04-27 06:38 -33.30390 125.93289 40148 ft 409 kts 279°
2026-04-27 06:38 -33.29530 125.86558 40148 ft 409 kts 279°
2026-04-27 06:39 -33.28671 125.79840 40147 ft 409 kts 279°
2026-04-27 06:39 -33.27809 125.73102 40145 ft 409 kts 279°
2026-04-27 06:40 -33.26956 125.66382 40140 ft 409 kts 279°
2026-04-27 06:40 -33.26093 125.59658 40128 ft 409 kts 279°
2026-04-27 06:41 -33.25209 125.52928 40137 ft 410 kts 280°
2026-04-27 06:41 -33.24322 125.46192 40135 ft 411 kts 280°
2026-04-27 06:42 -33.23436 125.39440 40132 ft 411 kts 280°
2026-04-27 06:42 -33.22549 125.32701 40129 ft 411 kts 280°
2026-04-27 06:43 -33.21656 125.25952 40126 ft 411 kts 280°
2026-04-27 06:43 -33.20767 125.19201 40125 ft 412 kts 280°
2026-04-27 06:44 -33.19878 125.12450 40122 ft 412 kts 281°
2026-04-27 06:44 -33.18963 125.05690 40120 ft 413 kts 281°
2026-04-27 06:45 -33.18039 124.98970 40136 ft 413 kts 281°
2026-04-27 06:45 -33.17134 124.92200 40119 ft 413 kts 281°
2026-04-27 06:46 -33.16228 124.85429 40116 ft 413 kts 281°
2026-04-27 06:46 -33.15304 124.78656 40112 ft 413 kts 281°
2026-04-27 06:47 -33.14373 124.71891 40114 ft 413 kts 281°
2026-04-27 06:47 -33.13437 124.65136 40114 ft 412 kts 281°
2026-04-27 06:48 -33.12500 124.58393 40109 ft 411 kts 281°
2026-04-27 06:48 -33.11562 124.51666 40107 ft 411 kts 281°
2026-04-27 06:49 -33.10618 124.44921 40106 ft 411 kts 281°
2026-04-27 06:49 -33.09676 124.38221 40105 ft 409 kts 281°
2026-04-27 06:50 -33.08729 124.31518 40100 ft 409 kts 281°
2026-04-27 06:50 -33.07781 124.24835 40096 ft 409 kts 281°
2026-04-27 06:51 -33.06991 124.19280 40104 ft 409 kts 282°
2026-04-27 06:51 -33.06033 124.12609 40090 ft 408 kts 282°
2026-04-27 06:52 -33.05065 124.05944 40098 ft 409 kts 282°
2026-04-27 06:52 -33.04103 123.99296 40095 ft 409 kts 282°
2026-04-27 06:53 -33.03138 123.92610 40105 ft 409 kts 282°
2026-04-27 06:53 -33.02185 123.85938 40093 ft 408 kts 282°
2026-04-27 06:54 -33.01222 123.79275 40089 ft 408 kts 282°
2026-04-27 06:54 -33.00252 123.72625 40092 ft 408 kts 282°
2026-04-27 06:55 -32.99277 123.65974 40077 ft 408 kts 282°
2026-04-27 06:55 -32.98289 123.59298 40085 ft 409 kts 282°
2026-04-27 06:56 -32.97300 123.52634 40085 ft 409 kts 282°
2026-04-27 06:56 -32.96307 123.45956 40082 ft 409 kts 282°
2026-04-27 06:57 -32.95314 123.39289 40083 ft 409 kts 282°
2026-04-27 06:57 -32.94317 123.32617 40081 ft 409 kts 282°
2026-04-27 06:58 -32.92815 123.22624 40076 ft 409 kts 282°
2026-04-27 06:59 -32.91817 123.16002 40054 ft 409 kts 282°
2026-04-27 06:59 -32.90805 123.09320 40076 ft 411 kts 282°
2026-04-27 07:00 -32.89785 123.02625 40069 ft 412 kts 282°
2026-04-27 07:00 -32.88767 122.95915 40073 ft 412 kts 282°
2026-04-27 07:01 -32.87743 122.89210 40075 ft 412 kts 283°
2026-04-27 07:01 -32.86708 122.82508 40065 ft 413 kts 283°
2026-04-27 07:02 -32.85668 122.75777 40066 ft 414 kts 282°
2026-04-27 07:02 -32.84628 122.69053 40061 ft 414 kts 283°
2026-04-27 07:03 -32.83583 122.62321 40057 ft 414 kts 283°
2026-04-27 07:03 -32.82531 122.55580 40058 ft 415 kts 283°
2026-04-27 07:04 -32.81472 122.48824 40062 ft 416 kts 283°
2026-04-27 07:04 -32.80408 122.42057 40063 ft 416 kts 283°
2026-04-27 07:05 -32.79342 122.35303 40056 ft 416 kts 283°
2026-04-27 07:05 -32.78273 122.28557 40054 ft 420 kts 283°
2026-04-27 07:06 -32.77188 122.21729 40052 ft 422 kts 283°
2026-04-27 07:06 -32.76095 122.14879 40048 ft 422 kts 283°
2026-04-27 07:07 -32.75001 122.08043 40048 ft 421 kts 283°
2026-04-27 07:07 -32.73888 122.01197 40050 ft 423 kts 283°
2026-04-27 07:08 -32.72768 121.94343 40042 ft 423 kts 283°
2026-04-27 07:08 -32.71650 121.87471 40048 ft 423 kts 283°
2026-04-27 07:09 -32.70694 121.80552 40047 ft 424 kts 280°
2026-04-27 07:09 -32.70029 121.73588 40044 ft 425 kts 278°
2026-04-27 07:10 -32.69396 121.66608 40044 ft 425 kts 279°
2026-04-27 07:10 -32.68712 121.59687 40046 ft 425 kts 279°
2026-04-27 07:11 -32.67982 121.52686 40048 ft 425 kts 279°
2026-04-27 07:11 -32.67249 121.45781 40045 ft 424 kts 279°
2026-04-27 07:12 -32.66507 121.38824 40044 ft 424 kts 279°
2026-04-27 07:12 -32.65766 121.31881 40045 ft 425 kts 279°
2026-04-27 07:13 -32.65019 121.24923 40043 ft 425 kts 279°
2026-04-27 07:13 -32.64270 121.17971 40042 ft 424 kts 279°
2026-04-27 07:14 -32.63518 121.11038 40042 ft 424 kts 279°
2026-04-27 07:14 -32.62762 121.04096 40039 ft 424 kts 279°
2026-04-27 07:15 -32.62002 120.97158 40029 ft 424 kts 279°
2026-04-27 07:15 -32.61240 120.90238 40040 ft 423 kts 279°
2026-04-27 07:16 -32.60475 120.83321 40040 ft 422 kts 279°
2026-04-27 07:16 -32.59708 120.76433 40039 ft 422 kts 279°
2026-04-27 07:17 -32.58937 120.69537 40037 ft 422 kts 280°
2026-04-27 07:17 -32.58162 120.62642 40037 ft 422 kts 280°
2026-04-27 07:18 -32.57385 120.55757 40032 ft 422 kts 280°
2026-04-27 07:18 -32.56603 120.48864 40034 ft 422 kts 280°
2026-04-27 07:19 -32.55817 120.41982 40038 ft 422 kts 280°
2026-04-27 07:19 -32.55028 120.35095 40032 ft 421 kts 280°
2026-04-27 07:20 -32.54236 120.28219 40037 ft 421 kts 280°
2026-04-27 07:20 -32.53446 120.21397 40037 ft 420 kts 280°
2026-04-27 07:21 -32.52647 120.14529 40036 ft 420 kts 280°
2026-04-27 07:21 -32.51844 120.07664 40039 ft 420 kts 280°
2026-04-27 07:22 -32.51041 120.00823 40037 ft 419 kts 280°
2026-04-27 07:22 -32.50233 119.93981 40036 ft 419 kts 280°
2026-04-27 07:23 -32.49423 119.87146 40036 ft 419 kts 280°
2026-04-27 07:23 -32.48610 119.80305 40037 ft 419 kts 280°
2026-04-27 07:24 -32.47796 119.73492 40023 ft 418 kts 280°
2026-04-27 07:24 -32.46973 119.66676 40032 ft 418 kts 280°
2026-04-27 07:25 -32.46147 119.59859 40031 ft 419 kts 280°
2026-04-27 07:25 -32.45318 119.53031 40042 ft 418 kts 280°
2026-04-27 07:26 -32.44487 119.46218 40029 ft 417 kts 280°
2026-04-27 07:26 -32.43655 119.39425 40030 ft 417 kts 280°
2026-04-27 07:27 -32.42819 119.32636 40029 ft 417 kts 280°
2026-04-27 07:27 -32.41984 119.25887 40031 ft 417 kts 281°
2026-04-27 07:28 -32.41142 119.19109 40028 ft 416 kts 280°
2026-04-27 07:28 -32.40298 119.12343 40030 ft 415 kts 281°
2026-04-27 07:29 -32.39449 119.05575 40030 ft 416 kts 281°
2026-04-27 07:29 -32.38597 118.98805 40026 ft 416 kts 281°
2026-04-27 07:30 -32.37741 118.92037 40030 ft 415 kts 281°
2026-04-27 07:30 -32.36886 118.85300 40026 ft 415 kts 281°
2026-04-27 07:31 -32.36025 118.78552 40023 ft 414 kts 281°
2026-04-27 07:31 -32.35161 118.71810 40023 ft 415 kts 281°
2026-04-27 07:32 -32.34293 118.65070 40030 ft 415 kts 281°
2026-04-27 07:32 -32.33823 118.58260 40023 ft 418 kts 273°
2026-04-27 07:33 -32.33952 118.51391 40013 ft 418 kts 271°
2026-04-27 07:33 -32.34188 118.44509 40017 ft 419 kts 271°
2026-04-27 07:34 -32.34423 118.37809 40020 ft 392 kts 271°
2026-04-27 07:34 -32.34529 118.34647 40033 ft 380 kts 271°
2026-04-27 07:34 -32.34594 118.32583 40025 ft 378 kts 271°
2026-04-27 07:35 -32.34688 118.29348 40018 ft 378 kts 271°
2026-04-27 07:35 -32.34830 118.24274 40015 ft 379 kts 272°
2026-04-27 07:35 -32.34946 118.20161 39587 ft 378 kts 272°
2026-04-27 07:36 -32.35004 118.18111 39287 ft 376 kts 272°
2026-04-27 07:36 -32.35092 118.15047 38943 ft 370 kts 272°
2026-04-27 07:36 -32.35179 118.12031 38561 ft 364 kts 272°
2026-04-27 07:36 -32.35264 118.09051 38113 ft 359 kts 272°
2026-04-27 07:37 -32.35346 118.06118 37686 ft 355 kts 272°
2026-04-27 07:37 -32.35426 118.03224 37262 ft 350 kts 272°
2026-04-27 07:37 -32.35504 118.00367 36866 ft 345 kts 272°
2026-04-27 07:37 -32.35581 117.97553 36483 ft 340 kts 273°
2026-04-27 07:38 -32.35655 117.94781 36106 ft 335 kts 273°
2026-04-27 07:38 -32.35728 117.92044 35731 ft 330 kts 273°
2026-04-27 07:38 -32.35799 117.89342 35347 ft 326 kts 273°
2026-04-27 07:38 -32.35868 117.86684 34968 ft 322 kts 273°
2026-04-27 07:39 -32.35936 117.84051 34584 ft 319 kts 273°
2026-04-27 07:39 -32.36003 117.81475 34232 ft 315 kts 274°
2026-04-27 07:39 -32.36068 117.78902 33856 ft 311 kts 274°
2026-04-27 07:39 -32.36133 117.76362 33452 ft 308 kts 274°
2026-04-27 07:40 -32.36197 117.73850 33134 ft 303 kts 274°
2026-04-27 07:40 -32.36259 117.71368 32817 ft 300 kts 274°
2026-04-27 07:40 -32.36320 117.68907 32520 ft 298 kts 274°
2026-04-27 07:40 -32.36293 117.66483 32207 ft 292 kts 280°
2026-04-27 07:41 -32.35991 117.64134 31897 ft 286 kts 287°
2026-04-27 07:41 -32.35535 117.61864 31616 ft 282 kts 288°
2026-04-27 07:41 -32.35032 117.59631 31347 ft 279 kts 289°
2026-04-27 07:41 -32.34499 117.57406 31080 ft 277 kts 290°
2026-04-27 07:42 -32.33965 117.55234 30841 ft 274 kts 290°
2026-04-27 07:42 -32.33437 117.53106 30611 ft 272 kts 291°
2026-04-27 07:42 -32.32900 117.50941 30374 ft 270 kts 291°
2026-04-27 07:42 -32.32383 117.48840 30165 ft 269 kts 291°
2026-04-27 07:43 -32.31859 117.46693 29904 ft 268 kts 291°
2026-04-27 07:43 -32.31353 117.44619 29694 ft 264 kts 290°
2026-04-27 07:43 -32.30850 117.42540 29552 ft 262 kts 290°
2026-04-27 07:43 -32.30350 117.40470 29414 ft 261 kts 290°
2026-04-27 07:44 -32.29855 117.38419 29261 ft 259 kts 290°
2026-04-27 07:44 -32.29360 117.36368 29124 ft 258 kts 290°
2026-04-27 07:44 -32.28868 117.34331 28982 ft 257 kts 290°
2026-04-27 07:44 -32.28378 117.32304 28856 ft 256 kts 290°
2026-04-27 07:45 -32.27889 117.30284 28720 ft 255 kts 290°
2026-04-27 07:45 -32.27401 117.28271 28588 ft 254 kts 290°
2026-04-27 07:45 -32.26914 117.26267 28481 ft 253 kts 290°
2026-04-27 07:45 -32.26429 117.24267 28356 ft 253 kts 290°
2026-04-27 07:46 -32.25953 117.22307 28246 ft 252 kts 290°
2026-04-27 07:46 -32.25470 117.20321 28147 ft 251 kts 290°
2026-04-27 07:46 -32.24988 117.18340 28059 ft 250 kts 290°
2026-04-27 07:46 -32.24508 117.16370 27977 ft 249 kts 290°
2026-04-27 07:47 -32.24029 117.14405 27824 ft 248 kts 290°
2026-04-27 07:47 -32.23557 117.12463 27477 ft 245 kts 290°
2026-04-27 07:47 -32.23089 117.10541 27018 ft 241 kts 290°
2026-04-27 07:47 -32.22627 117.08645 26415 ft 239 kts 290°
2026-04-27 07:48 -32.22168 117.06764 25831 ft 237 kts 290°
2026-04-27 07:48 -32.21712 117.04902 25295 ft 235 kts 290°
2026-04-27 07:48 -32.21263 117.03064 24760 ft 232 kts 290°
2026-04-27 07:48 -32.20816 117.01241 24241 ft 229 kts 290°
2026-04-27 07:49 -32.20376 116.99444 23734 ft 226 kts 290°
2026-04-27 07:49 -32.19942 116.97672 23131 ft 224 kts 290°
2026-04-27 07:49 -32.19510 116.95912 22557 ft 222 kts 289°
2026-04-27 07:49 -32.19082 116.94172 21983 ft 220 kts 289°
2026-04-27 07:50 -32.18655 116.92440 21403 ft 219 kts 289°
2026-04-27 07:50 -32.18148 116.90756 20871 ft 217 kts 294°
2026-04-27 07:50 -32.17446 116.89192 20342 ft 215 kts 303°
2026-04-27 07:50 -32.16593 116.87777 19867 ft 213 kts 307°
2026-04-27 07:51 -32.15685 116.86393 19383 ft 213 kts 308°
2026-04-27 07:51 -32.14765 116.85014 18858 ft 214 kts 308°
2026-04-27 07:51 -32.13845 116.83634 18363 ft 214 kts 308°
2026-04-27 07:51 -32.12932 116.82260 17820 ft 212 kts 307°
2026-04-27 07:52 -32.12023 116.80892 17301 ft 210 kts 307°
2026-04-27 07:52 -32.11126 116.79542 16792 ft 208 kts 307°
2026-04-27 07:52 -32.10240 116.78205 16301 ft 206 kts 306°
2026-04-27 07:52 -32.09358 116.76876 15818 ft 205 kts 306°
2026-04-27 07:53 -32.08480 116.75553 15381 ft 205 kts 306°
2026-04-27 07:53 -32.07604 116.74233 15075 ft 204 kts 306°
2026-04-27 07:53 -32.06735 116.72927 14798 ft 202 kts 306°
2026-04-27 07:53 -32.05870 116.71627 14487 ft 201 kts 305°
2026-04-27 07:54 -32.05010 116.70333 14180 ft 200 kts 305°
2026-04-27 07:54 -32.04152 116.69043 13891 ft 200 kts 305°
2026-04-27 07:54 -32.03298 116.67756 13596 ft 199 kts 305°
2026-04-27 07:54 -32.02451 116.66477 13321 ft 196 kts 306°
2026-04-27 07:55 -32.01636 116.65242 13166 ft 187 kts 307°
2026-04-27 07:55 -32.00844 116.64053 12859 ft 187 kts 307°
2026-04-27 07:55 -32.00040 116.62848 12564 ft 187 kts 307°
2026-04-27 07:55 -31.99241 116.61649 12294 ft 185 kts 307°
2026-04-27 07:56 -31.98447 116.60458 12003 ft 184 kts 307°
2026-04-27 07:56 -31.97657 116.59274 11703 ft 182 kts 307°
2026-04-27 07:56 -31.96877 116.58105 11421 ft 181 kts 307°
2026-04-27 07:56 -31.96100 116.56940 11123 ft 180 kts 307°
2026-04-27 07:57 -31.95324 116.55772 10696 ft 187 kts 306°
2026-04-27 07:57 -31.94526 116.54496 10251 ft 196 kts 303°
2026-04-27 07:57 -31.93804 116.53156 10024 ft 192 kts 301°
2026-04-27 07:57 -31.93117 116.51818 9759 ft 190 kts 300°
2026-04-27 07:58 -31.92444 116.50491 9459 ft 188 kts 300°
2026-04-27 07:58 -31.91773 116.49172 9153 ft 187 kts 300°
2026-04-27 07:58 -31.91105 116.47860 8880 ft 186 kts 300°
2026-04-27 07:58 -31.90432 116.46542 8438 ft 192 kts 300°
2026-04-27 07:59 -31.89723 116.45154 7909 ft 204 kts 301°
2026-04-27 07:59 -31.88184 116.42146 6818 ft 224 kts 301°
2026-04-27 07:59 -31.87372 116.40561 6214 ft 234 kts 301°
2026-04-27 08:00 -31.86520 116.38897 5633 ft 240 kts 300°
2026-04-27 08:00 -31.85663 116.37211 5209 ft 238 kts 300°
2026-04-27 08:00 -31.84825 116.35576 5014 ft 226 kts 300°
2026-04-27 08:00 -31.84048 116.34060 5035 ft 207 kts 301°
2026-04-27 08:01 -31.83332 116.32670 5051 ft 191 kts 301°
2026-04-27 08:01 -31.82671 116.31394 5047 ft 175 kts 301°
2026-04-27 08:01 -31.82063 116.30217 4995 ft 163 kts 301°
2026-04-27 08:01 -31.81472 116.29066 4679 ft 166 kts 301°
2026-04-27 08:02 -31.80877 116.27906 4451 ft 162 kts 301°
2026-04-27 08:02 -31.80315 116.26812 4368 ft 150 kts 302°
2026-04-27 08:02 -31.79789 116.25795 4239 ft 141 kts 301°
2026-04-27 08:02 -31.79327 116.24793 3955 ft 140 kts 297°
2026-04-27 08:03 -31.79017 116.23714 3710 ft 139 kts 290°
2026-04-27 08:03 -31.78765 116.22628 3464 ft 138 kts 289°
2026-04-27 08:03 -31.78517 116.21546 3185 ft 137 kts 289°
2026-04-27 08:03 -31.78265 116.20458 2863 ft 141 kts 289°
2026-04-27 08:04 -31.77996 116.19327 2552 ft 143 kts 289°
2026-04-27 08:04 -31.77748 116.18262 2488 ft 126 kts 288°
2026-04-27 08:04 -31.77536 116.17335 2493 ft 123 kts 289°
2026-04-27 08:04 -31.77279 116.16262 2754 ft 134 kts 290°
2026-04-27 08:05 -31.76976 116.15059 2644 ft 175 kts 290°
2026-04-27 08:05 -31.76604 116.13558 2461 ft 195 kts 288°
2026-04-27 08:05 -31.76267 116.12085 2479 ft 186 kts 288°
2026-04-27 08:05 -31.75903 116.10556 2489 ft 204 kts 289°
2026-04-27 08:06 -31.75582 116.08936 2491 ft 195 kts 279°
2026-04-27 08:06 -31.75723 116.07386 2525 ft 192 kts 256°
2026-04-27 08:06 -31.76371 116.06028 2525 ft 187 kts 239°
2026-04-27 08:06 -31.77145 116.04841 2533 ft 179 kts 237°
2026-04-27 08:07 -31.77893 116.03726 2530 ft 173 kts 237°
2026-04-27 08:07 -31.78631 116.02620 2527 ft 172 kts 238°
2026-04-27 08:07 -31.79389 116.01531 2526 ft 173 kts 233°
2026-04-27 08:07 -31.80355 116.00661 2519 ft 178 kts 213°
2026-04-27 08:08 -31.81544 116.00142 2363 ft 190 kts 199°
2026-04-27 08:08 -31.82831 115.99776 2096 ft 186 kts 196°
2026-04-27 08:08 -31.84052 115.99421 1857 ft 177 kts 197°
2026-04-27 08:08 -31.85259 115.99059 1617 ft 180 kts 197°
2026-04-27 08:09 -31.86480 115.98701 1364 ft 181 kts 196°
2026-04-27 08:09 -31.87706 115.98345 1110 ft 181 kts 195°
2026-04-27 08:09 -31.88919 115.97994 872 ft 179 kts 194°
2026-04-27 08:09 -31.90114 115.97647 650 ft 175 kts 194°
2026-04-27 08:10 -31.91285 115.97307 413 ft 172 kts 194°
2026-04-27 08:10 -31.92445 115.96969 196 ft 173 kts 195°
2026-04-27 08:10 -31.93596 115.96634 83 ft 169 kts 195°
2026-04-27 08:10 -31.94640 115.96330 94 ft 141 kts 195°
2026-04-27 08:11 -31.95329 115.96125 65 ft 71 kts 193°
2026-04-27 08:11 -31.95636 115.96038 64 ft 33 kts 193°
2026-04-27 08:11 -31.95830 115.96019 68 ft 27 kts 149°
2026-04-27 08:11 -31.95913 115.96187 69 ft 24 kts 105°
2026-04-27 08:12 -31.95844 115.96328 63 ft 23 kts 18°
2026-04-27 08:12 -31.95673 115.96377 66 ft 28 kts 13°
2026-04-27 08:12 -31.95505 115.96424 74 ft 27 kts 13°
2026-04-27 08:12 -31.95375 115.96466 69 ft 17 kts 15°
2026-04-27 08:13 -31.95238 115.96508 65 ft 23 kts 13°
2026-04-27 08:13 -31.95064 115.96558 69 ft 28 kts 14°
2026-04-27 08:13 -31.94917 115.96601 68 ft 21 kts 14°
2026-04-27 08:13 -31.94774 115.96643 65 ft 18 kts 14°
2026-04-27 08:14 -31.94669 115.96674 68 ft 17 kts 14°
2026-04-27 08:14 -31.94587 115.96698 59 ft 19 kts 12°
2026-04-27 08:14 -31.94415 115.96742 69 ft 22 kts 12°
2026-04-27 08:14 -31.94259 115.96792 65 ft 24 kts 13°
2026-04-27 08:15 -31.94138 115.96824 67 ft 18 kts 14°
2026-04-27 08:15 -31.94011 115.96861 69 ft 12 kts 14°
2026-04-27 08:15 -31.93925 115.96938 63 ft 20 kts 74°
2026-04-27 08:15 -31.93981 115.97042 66 ft 0 kts 175°
2026-04-27 08:16 -31.93986 115.97043 68 ft 2 kts 176°
2026-04-27 08:16 -31.93998 115.97042 69 ft 2 kts 181°
2026-04-27 08:16 -31.94022 115.97038 65 ft 3 kts 190°
2026-04-27 08:16 -31.94027 115.97037 63 ft 0 kts 191°